GW2344 Weather Reports


time (UTC)temp
F
wind
direction
speed
knots
gust
knots
rain 1hr
in
rain 24hr
in
rain mn
in
humidity
%
barometer
mb
20260505153140 50 63 0.0 0.0 0.00 0.00 0.00 51 1015.9
20260505152636 49 66 0.9 0.9 0.00 0.00 0.00 54 1015.9
20260505152132 48 68 0.9 0.9 0.00 0.00 0.00 56 1016.0
20260505151628 49 76 0.0 0.9 0.00 0.00 0.00 55 1016.4
20260505151125 48 101 0.9 1.7 0.00 0.00 0.00 55 1016.3
20260505150621 47 180 2.6 2.6 0.00 0.00 0.00 55 1016.3
20260505150119 47 55 1.7 1.7 0.00 0.00 0.00 56 1016.2
20260505140547 41 58 0.9 0.9 0.00 0.00 0.00 70 1015.8
20260505125000 39 61 0.9 0.9 0.00 0.00 0.00 67 1014.7
20260505124457 38 64 0.0 0.9 0.00 0.00 0.00 67 1014.8
20260505123953 38 65 0.0 0.0 0.00 0.00 0.00 69 1014.9
20260505123450 39 64 0.0 0.9 0.00 0.00 0.00 66 1014.9
20260505122946 39 63 0.0 0.9 0.00 0.00 0.00 65 1014.8
20260505122443 40 60 0.9 1.7 0.00 0.00 0.00 64 1014.8
20260505121940 40 65 0.0 0.9 0.00 0.00 0.00 63 1014.9
20260505121437 40 53 1.7 2.6 0.00 0.00 0.00 62 1014.9
20260505120933 41 56 0.9 0.9 0.00 0.00 0.00 62 1014.7
20260505120430 41 56 0.9 0.9 0.00 0.00 0.00 61 1014.8
20260505115928 41 59 0.9 0.9 0.00 0.00 0.00 61 1014.9
20260505115425 41 84 0.9 0.9 0.00 0.00 0.00 61 1014.8
20260505114923 40 66 0.0 0.9 0.00 0.00 0.00 61 1015.1
20260505114419 40 58 0.0 0.9 0.00 0.00 0.00 63 1015.2
20260505113915 42 62 0.0 0.0 0.00 0.00 0.00 60 1014.9
20260505113413 42 63 1.7 2.6 0.00 0.00 0.00 57 1014.8
20260505112908 42 63 0.9 0.9 0.00 0.00 0.00 57 1015.1
20260505112406 43 61 0.0 0.9 0.00 0.00 0.00 56 1014.8
20260505111902 43 58 0.9 1.7 0.00 0.00 0.00 56 1015.1
20260505111357 43 55 1.7 2.6 0.00 0.00 0.00 56 1014.9
20260505110853 43 59 2.6 2.6 0.00 0.00 0.00 56 1014.8
20260505110351 43 51 1.7 1.7 0.00 0.00 0.00 56 1014.8
20260505101821 42 61 0.9 0.9 0.00 0.00 0.00 59 1014.8
20260505101316 42 62 0.9 0.9 0.00 0.00 0.00 59 1014.9
20260505100812 42 61 1.7 1.7 0.00 0.00 0.00 58 1014.8
20260505100309 42 53 2.6 2.6 0.00 0.00 0.00 58 1014.5
20260505095805 42 68 0.9 0.9 0.00 0.00 0.00 58 1014.7
20260505095304 43 61 1.7 1.7 0.00 0.00 0.00 57 1014.8
20260505094758 43 54 1.7 1.7 0.00 0.00 0.00 57 1014.4
20260505094255 43 58 0.9 0.9 0.00 0.00 0.00 56 1014.7
20260505093750 43 65 1.7 1.7 0.00 0.00 0.00 55 1014.3
20260505093248 43 64 0.0 0.9 0.00 0.00 0.00 56 1014.5
20260505092745 43 61 0.9 0.9 0.00 0.00 0.00 55 1014.5
20260505092244 44 45 0.0 0.9 0.00 0.00 0.00 54 1014.5
20260505091740 44 67 0.9 0.9 0.00 0.00 0.00 53 1014.6
20260505091239 45 63 0.9 0.9 0.00 0.00 0.00 53 1014.6
20260505090735 45 69 0.9 0.9 0.00 0.00 0.00 52 1014.4
20260505090234 46 61 0.9 1.7 0.00 0.00 0.00 50 1014.6
20260505085731 46 58 1.7 1.7 0.00 0.00 0.00 50 1014.4
20260505085229 46 59 0.9 1.7 0.00 0.00 0.00 49 1014.5
20260505084726 47 61 1.7 2.6 0.00 0.00 0.00 49 1014.5
20260505084225 47 63 2.6 4.3 0.00 0.00 0.00 47 1014.4
20260505083722 47 51 1.7 1.7 0.00 0.00 0.00 47 1014.8
20260505083218 47 50 0.9 1.7 0.00 0.00 0.00 47 1014.6
20260505082714 48 55 2.6 2.6 0.00 0.00 0.00 46 1014.6
20260505082212 48 46 2.6 4.3 0.00 0.00 0.00 46 1014.7
20260505081707 48 40 4.3 6.1 0.00 0.00 0.00 45 1014.9
20260505081205 48 75 2.6 4.3 0.00 0.00 0.00 45 1014.8
20260505080702 48 340 2.6 4.3 0.00 0.00 0.00 46 1014.5
20260505080158 49 54 2.6 4.3 0.00 0.00 0.00 46 1014.8
20260505075654 49 49 3.5 4.3 0.00 0.00 0.00 46 1014.7
20260505075151 49 56 3.5 4.3 0.00 0.00 0.00 45 1014.8
20260505074648 49 37 2.6 2.6 0.00 0.00 0.00 45 1014.7
20260505074145 49 68 3.5 4.3 0.00 0.00 0.00 46 1014.6
20260505073643 50 32 3.5 4.3 0.00 0.00 0.00 45 1014.9
20260505073141 50 58 2.6 4.3 0.00 0.00 0.00 45 1014.8
20260505072636 50 53 2.6 4.3 0.00 0.00 0.00 45 1014.7
20260505072133 50 89 2.6 4.3 0.00 0.00 0.00 44 1014.6
20260505071628 50 26 6.1 8.7 0.00 0.00 0.00 44 1014.5
20260505071126 50 31 2.6 5.2 0.00 0.00 0.00 44 1014.5
20260505070623 51 50 2.6 2.6 0.00 0.00 0.00 45 1014.7
20260505070119 51 74 3.5 4.3 0.00 0.00 0.00 45 1014.7
20260505065615 51 27 6.1 7.0 0.00 0.00 0.00 44 1014.5
20260505065112 51 27 3.5 6.1 0.00 0.00 0.00 45 1014.7
20260505064609 51 74 2.6 4.3 0.00 0.00 0.00 45 1014.8
20260505064108 51 59 3.5 4.3 0.00 0.00 0.00 46 1014.6
20260505063604 51 55 2.6 4.3 0.00 0.00 0.00 46 1014.7
20260505063100 51 54 2.6 2.6 0.00 0.00 0.00 46 1014.5
20260505062557 51 48 2.6 4.3 0.00 0.00 0.00 46 1014.5
20260505062054 51 341 5.2 7.0 0.00 0.00 0.00 46 1014.3
20260505061552 51 29 3.5 7.0 0.00 0.00 0.00 45 1014.3
20260505061049 51 37 4.3 5.2 0.00 0.00 0.00 45 1014.4
20260505060547 51 67 2.6 4.3 0.00 0.00 0.00 46 1014.0
20260505060044 52 36 3.5 4.3 0.00 0.00 0.00 46 1014.2
20260505055538 52 33 3.5 6.1 0.00 0.00 0.00 46 1014.1
20260505055035 51 47 1.7 2.6 0.00 0.00 0.00 46 1014.0
20260505054533 51 64 0.9 1.7 0.00 0.00 0.00 47 1013.7
20260505054031 51 61 4.3 5.2 0.00 0.00 0.00 46 1013.7
20260505053528 51 5 2.6 5.2 0.00 0.00 0.00 46 1014.0
20260505053024 52 61 5.2 7.8 0.00 0.00 0.00 46 1014.0
20260505052521 52 61 2.6 5.2 0.00 0.00 0.00 46 1013.9
20260505052019 52 2 6.1 7.8 0.00 0.00 0.00 46 1013.5
20260505051515 52 60 2.6 4.3 0.00 0.00 0.00 46 1013.5
20260505051014 52 38 2.6 4.3 0.00 0.00 0.00 47 1013.6
20260505050511 53 55 2.6 4.3 0.00 0.00 0.00 47 1013.6
20260505041439 54 60 0.9 0.9 0.00 0.00 0.00 48 1013.2
20260505040936 54 58 0.9 0.9 0.00 0.00 0.00 48 1013.2
20260505040434 54 62 0.9 0.9 0.00 0.00 0.00 48 1013.1
20260505035930 54 55 0.0 0.9 0.00 0.00 0.00 48 1013.1
20260505035426 55 57 0.9 0.9 0.00 0.00 0.00 47 1013.1
20260505034924 55 62 1.7 1.7 0.00 0.00 0.00 47 1012.9
20260505034420 55 50 1.7 1.7 0.00 0.00 0.00 46 1013.0
20260505033917 55 60 4.3 5.2 0.00 0.00 0.00 46 1012.9
20260505033414 55 58 2.6 2.6 0.00 0.00 0.00 46 1012.6
20260505032912 55 51 3.5 4.3 0.00 0.00 0.00 47 1012.9
20260505032409 56 41 2.6 4.3 0.00 0.00 0.00 46 1012.6
20260505031905 56 51 2.6 2.6 0.00 0.00 0.00 45 1012.4
20260505031402 57 58 1.7 2.6 0.00 0.00 0.00 45 1012.5
20260505030859 57 71 3.5 4.3 0.00 0.00 0.00 43 1012.3
20260505030355 57 50 5.2 6.1 0.00 0.00 0.00 43 1012.4
20260505025851 58 47 2.6 4.3 0.00 0.00 0.00 43 1012.3
20260505025349 58 93 3.5 4.3 0.00 0.00 0.00 42 1012.0
20260505024847 58 47 2.6 2.6 0.00 0.00 0.00 43 1012.2
20260505024345 58 42 3.5 5.2 0.00 0.00 0.00 42 1012.1
20260505023841 58 55 3.5 4.3 0.00 0.00 0.00 42 1012.0
20260505023338 59 54 2.6 2.6 0.00 0.00 0.00 42 1011.9
20260505022836 59 27 1.7 2.6 0.00 0.00 0.00 42 1011.8
20260505022332 59 48 2.6 4.3 0.00 0.00 0.00 41 1011.7
20260505021830 59 44 1.7 2.6 0.00 0.00 0.00 41 1011.8
20260505021326 60 51 2.6 2.6 0.00 0.00 0.00 41 1011.5
20260505020822 60 67 1.7 1.7 0.00 0.00 0.00 41 1011.5
20260505020318 60 12 2.6 2.6 0.00 0.00 0.00 41 1011.7
20260505015815 60 56 2.6 2.6 0.00 0.00 0.00 40 1011.3
20260505015312 61 55 2.6 2.6 0.00 0.00 0.00 40 1011.2
20260505014809 61 41 1.7 1.7 0.00 0.00 0.00 39 1011.1
20260505014307 62 50 4.3 5.2 0.00 0.00 0.00 38 1011.0
20260505013802 63 60 0.9 1.7 0.00 0.00 0.00 39 1011.1
20260505013300 63 74 0.9 1.7 0.00 0.00 0.00 38 1011.0
20260505012758 64 56 4.3 6.1 0.00 0.00 0.00 38 1011.1
20260505012255 64 62 1.7 2.6 0.00 0.00 0.00 38 1011.0
20260505011751 64 36 2.6 4.3 0.00 0.00 0.00 37 1010.9
20260505011248 64 52 0.9 0.9 0.00 0.00 0.00 41 1010.8
20260505010744 64 55 0.9 0.9 0.00 0.00 0.00 41 1010.7
20260505010240 63 53 1.7 1.7 0.00 0.00 0.00 40 1010.9
20260505005737 63 66 0.9 0.9 0.00 0.00 0.00 40 1010.7
20260505005234 63 65 1.7 1.7 0.00 0.00 0.00 41 1010.9
20260505004731 63 55 0.0 0.0 0.00 0.00 0.00 41 1010.7
20260505004227 63 55 2.6 5.2 0.00 0.00 0.00 39 1010.9
20260505003725 63 60 0.9 0.9 0.00 0.00 0.00 39 1010.8
20260505003222 63 52 0.9 1.7 0.00 0.00 0.00 40 1010.8
20260505002718 64 61 3.5 6.1 0.00 0.00 0.00 39 1010.9
20260505002216 64 62 0.9 0.9 0.00 0.00 0.00 40 1010.8
20260505001713 64 41 1.7 1.7 0.00 0.00 0.00 39 1011.1
20260505001211 65 66 2.6 5.2 0.00 0.00 0.00 38 1011.0
20260505000708 66 57 3.5 5.2 0.00 0.00 0.00 38 1010.9
20260505000206 66 44 1.7 2.6 0.00 0.00 0.00 38 1010.9
20260504235702 67 57 2.6 2.6 0.00 0.00 0.00 39 1010.6
20260504235158 67 52 2.6 2.6 0.00 0.00 0.00 36 1010.7
20260504234656 68 60 2.6 2.6 0.00 0.00 0.00 35 1010.6
20260504234152 66 24 2.6 7.8 0.00 0.00 0.00 38 1010.4
20260504233648 66 50 6.1 9.6 0.00 0.00 0.00 38 1010.6
20260504233144 67 44 0.9 0.9 0.00 0.00 0.00 37 1010.6
20260504232642 68 52 3.5 5.2 0.00 0.00 0.00 38 1010.6
20260504232139 68 59 2.6 2.6 0.00 0.00 0.00 36 1010.7
20260504231636 68 64 0.9 0.9 0.00 0.00 0.00 39 1010.4
20260504231132 68 62 0.0 0.9 0.00 0.00 0.00 37 1010.4
20260504230628 68 66 0.0 0.9 0.00 0.00 0.00 37 1010.6
20260504230127 69 24 2.6 2.6 0.00 0.00 0.00 39 1010.3
20260504225625 69 52 2.6 4.3 0.00 0.00 0.00 38 1010.0
20260504225121 69 74 0.9 1.7 0.00 0.00 0.00 34 1010.6
20260504224618 70 52 1.7 1.7 0.00 0.00 0.00 34 1010.4
20260504224115 70 57 0.9 1.7 0.00 0.00 0.00 32 1010.2
20260504223612 70 50 1.7 1.7 0.00 0.00 0.00 34 1010.6
20260504223107 71 222 1.7 2.6 0.00 0.00 0.00 34 1010.3
20260504222605 70 60 1.7 1.7 0.00 0.00 0.00 33 1010.3
20260504222101 70 57 2.6 2.6 0.00 0.00 0.00 33 1010.2
20260504221559 71 64 2.6 4.3 0.00 0.00 0.00 34 1010.6
20260504221055 70 63 2.6 2.6 0.00 0.00 0.00 35 1010.3
20260504220552 70 51 3.5 4.3 0.00 0.00 0.00 34 1010.4
20260504220049 70 47 1.7 1.7 0.00 0.00 0.00 34 1010.3
20260504215546 71 55 0.0 0.9 0.00 0.00 0.00 33 1010.3
20260504215043 72 42 1.7 1.7 0.00 0.00 0.00 33 1010.4
20260504214539 70 60 0.9 0.9 0.00 0.00 0.00 34 1010.4
20260504214035 70 337 1.7 2.6 0.00 0.00 0.00 34 1010.7
20260504213532 71 34 5.2 7.0 0.00 0.00 0.00 33 1010.8
20260504213029 71 57 1.7 2.6 0.00 0.00 0.00 34 1010.4
20260504212525 70 50 0.9 0.9 0.00 0.00 0.00 33 1010.6
20260504212023 71 34 1.7 1.7 0.00 0.00 0.00 34 1010.7
20260504211519 70 54 0.9 0.9 0.00 0.00 0.00 33 1010.6
20260504211017 70 69 1.7 1.7 0.00 0.00 0.00 35 1010.7
20260504210513 70 58 2.6 4.3 0.00 0.00 0.00 35 1010.6
20260504210010 71 59 1.7 2.6 0.00 0.00 0.00 34 1010.8
20260504205508 71 59 0.9 1.7 0.00 0.00 0.00 32 1011.0
20260504205006 69 39 3.5 4.3 0.00 0.00 0.00 36 1010.8
20260504204504 70 52 3.5 4.3 0.00 0.00 0.00 33 1011.1
20260504204002 70 31 2.6 2.6 0.00 0.00 0.00 34 1010.8
20260504203500 71 52 0.9 0.9 0.00 0.00 0.00 32 1011.2
20260504202956 69 41 1.7 2.6 0.00 0.00 0.00 38 1010.9
20260504202452 70 9 2.6 2.6 0.00 0.00 0.00 34 1011.0
20260504201949 69 7 4.3 6.1 0.00 0.00 0.00 34 1011.2
20260504201446 70 160 1.7 1.7 0.00 0.00 0.00 34 1011.0
20260504200944 70 65 1.7 2.6 0.00 0.00 0.00 32 1011.0
20260504200441 69 350 2.6 2.6 0.00 0.00 0.00 36 1010.8
20260504195937 69 47 1.7 1.7 0.00 0.00 0.00 34 1011.0
20260504195433 70 62 3.5 4.3 0.00 0.00 0.00 34 1011.0
20260504194930 68 38 2.6 4.3 0.00 0.00 0.00 35 1011.0
20260504194426 69 49 1.7 1.7 0.00 0.00 0.00 36 1011.2
20260504193922 68 69 0.9 1.7 0.00 0.00 0.00 35 1011.1
20260504193419 69 41 4.3 6.1 0.00 0.00 0.00 33 1011.3
20260504192918 69 31 2.6 4.3 0.00 0.00 0.00 35 1011.2
20260504192415 68 46 1.7 1.7 0.00 0.00 0.00 33 1011.3
20260504191914 68 49 2.6 2.6 0.00 0.00 0.00 37 1011.4
20260504191411 68 31 1.7 2.6 0.00 0.00 0.00 37 1011.4
20260504190906 69 65 2.6 2.6 0.00 0.00 0.00 34 1011.5
20260504190402 68 30 2.6 4.3 0.00 0.00 0.00 37 1011.5
20260504185859 68 43 0.9 1.7 0.00 0.00 0.00 37 1011.7
20260504185356 67 43 2.6 2.6 0.00 0.00 0.00 36 1011.7
20260504184852 67 24 1.7 1.7 0.00 0.00 0.00 36 1012.0
20260504184348 67 45 1.7 1.7 0.00 0.00 0.00 34 1011.9
20260504183844 68 70 1.7 1.7 0.00 0.00 0.00 34 1012.1
20260504183342 67 24 0.9 1.7 0.00 0.00 0.00 35 1012.0
20260504182839 67 50 4.3 7.0 0.00 0.00 0.00 36 1012.1
20260504182337 66 37 0.9 0.9 0.00 0.00 0.00 36 1012.0
20260504181833 66 62 3.5 5.2 0.00 0.00 0.00 35 1012.2
20260504181331 65 61 2.6 2.6 0.00 0.00 0.00 40 1012.3
20260504180830 66 71 1.7 2.6 0.00 0.00 0.00 40 1012.2
20260504180328 65 66 2.6 4.3 0.00 0.00 0.00 38 1012.1
20260504175825 64 57 3.5 4.3 0.00 0.00 0.00 39 1012.3
20260504175322 64 45 2.6 5.2 0.00 0.00 0.00 39 1012.4
20260504174820 63 59 2.6 4.3 0.00 0.00 0.00 38 1012.4
20260504174317 64 50 3.5 4.3 0.00 0.00 0.00 39 1012.2
20260504173814 64 29 5.2 7.0 0.00 0.00 0.00 39 1012.3
20260504173311 63 61 2.6 5.2 0.00 0.00 0.00 39 1012.4
20260504172808 63 65 4.3 6.1 0.00 0.00 0.00 38 1012.4
20260504172305 63 56 5.2 7.0 0.00 0.00 0.00 39 1012.6
20260504171800 62 25 5.2 7.0 0.00 0.00 0.00 39 1012.4
20260504171258 62 61 2.6 4.3 0.00 0.00 0.00 41 1012.6
20260504170755 63 22 5.2 7.8 0.00 0.00 0.00 39 1012.3
20260504170252 61 62 4.3 7.0 0.00 0.00 0.00 41 1012.8
20260504160210 59 37 4.3 6.1 0.00 0.00 0.00 43 1013.2